Showing default

MUOS 3, 40374

Orbit data source: Space-Track

MUOS 3, 40374 is a payload satellite owned by SPAWAR Pacific (US) in GEO that was launched on Wed, 21 Jan 2015 UTC via an ATLAS V 551 launch vehicle from the Air Force Eastern Test Range (AFETR). Payloads include a variety of satellites, spacecraft, and rockets equipped with specific instruments for various scientific and technological missions. These include communications satellites like Starlink; space stations such as the ISS; scientific satellites like the Hubble; Earth observation satellites from companies like Planet Labs, Umbra, and HawkEye 360; GPS; miniature CubeSats for education and research; and military/defense satellites.

Not visible in the next 10 days
MUOS 3 details
Identifier
40374, 2015-002A
Orbit
GEO
Last TLE update10 hours ago
Origin
Flag of USSPAWAR Pacific (US)
ManufacturerLMSS/LMCSS
MissionOperational Defense Communications
Bus & MotorA2100, BT-4
Mass6,800 kg wet, 3,800 kg dry
Launch date (UTC)
2015-01-21 (10 years ago)
Launch vehicle
ATLAS V 551
Launch site
Air Force Eastern Test Range (AFETR)
Object type
Payload
Rocket body
Debris
Shape & HBRBox + 2 Pan + 1 Dish, 28.7 m
Radar Cross Section71.298 m², Large (>1 m²)

Expand to show TLE details & history

TLE from 10 hours ago
0 MUOS 3
1 40374U 15002A   25013.67586983 -.00000130  00000-0  00000+0 0  9993
2 40374   3.5726  38.8999 0057169 184.0321 118.3175  1.00271279 36606
Epoch: 2025-01-13T16:13Z
Definitive object data (Epoch: 2025-01-13T16:13:15.153Z)
Latitude-3.02211°
Longitude-14.80772°
Altitude35,901.004 km
Speed3.066 km/s
True Right ascension22h 47m 35s
True Declination-3° 01' 09"
Sunlit
Object was in daylight at TLE epoch
Visualization TLE readout
Latitude3.58052°
Longitude138.24571°
Altitude35,776.86 km
Speed3.075 km/s
Apparent Right ascension09h 26m 25s
Apparent Declination-1° 57' 07"
Sunlit
Object is in daylight
Visualization observer readout
Local Sidereal Time03:03:37
Azimuth87.837° E
Elevation-5.623°
Doppler factor1
Orbital elements
Apogee altitude36,028.86 km
Perigee altitude35,546.743 km
Semi-major axis42,165.938 km
Eccentricity0.0057169
Inclination3.5726°
RAAN38.8999°
Arg. of periapsis184.0321°
True anomaly118.89226°
Mean anomaly118.3175°
Eccentric anomaly118.60507°
Mean motion0.25067 °/min
BSTARUnknown
Orbital period1436.16 mins
Loading historical data...
40374 neighbors
Authenticating...
Loading maneuver chart data...
Loading historical data...
Loading historical data...
Loading historical data...
Loading historical data...
Loading historical data...
Loading historical data...
Loading historical data...
Other satellites on launch #2 in the year 2015 (2015-01-21 UTC)

MUOS 3 Visibility forecast

Observer location: undefined°, undefined

MUOS 3 is not visible in the next 10 days
Span
Click to sort rows by Start time (UTC) header in descending order
Start Az.
Max El. time (UTC)
Max El. Az.
Max El.
End time (UTC)
End Az.
|